Time,TemperatureF,DewpointF,PressureIn,WindDirection,WindDirectionDegrees,WindSpeedMPH,WindSpeedGustMPH,Humidity,HourlyPrecipIn,Conditions,Clouds,dailyrainin,SolarRadiationWatts/m^2,SoftwareType,DateUTC
2013-02-12 00:08:00,29.0,22.0,30.08,WNW,289,20.0,-999.0,76,-99.99,,,0.00,0,weatherlink.com 1.10,2013-02-12 06:08:00,
2013-02-12 00:23:00,29.0,23.0,30.07,WNW,303,21.0,-999.0,77,-99.99,,,0.00,0,weatherlink.com 1.10,2013-02-12 06:23:00,
2013-02-12 00:38:00,28.8,22.0,30.08,West,281,19.0,-999.0,76,-99.99,,,0.00,0,weatherlink.com 1.10,2013-02-12 06:38:00,
2013-02-12 00:53:00,28.8,22.0,30.09,WNW,290,17.0,-999.0,76,-99.99,,,0.00,0,weatherlink.com 1.10,2013-02-12 06:53:00,
2013-02-12 01:08:00,28.7,22.0,30.09,WNW,290,14.0,-999.0,76,-99.99,,,0.00,0,weatherlink.com 1.10,2013-02-12 07:08:00,
2013-02-12 01:23:00,28.5,22.0,30.08,NW,311,14.0,-999.0,77,-99.99,,,0.00,0,weatherlink.com 1.10,2013-02-12 07:23:00,
2013-02-12 01:38:00,28.5,22.0,30.09,WNW,290,13.0,-999.0,77,-99.99,,,0.00,0,weatherlink.com 1.10,2013-02-12 07:38:00,
2013-02-12 01:53:00,28.5,22.0,30.09,NW,304,17.0,-999.0,77,-99.99,,,0.00,0,weatherlink.com 1.10,2013-02-12 07:53:00,
2013-02-12 02:08:00,28.4,22.0,30.10,WNW,298,13.0,-999.0,77,-99.99,,,0.00,0,weatherlink.com 1.10,2013-02-12 08:08:00,
2013-02-12 02:23:00,28.4,22.0,30.10,WNW,298,14.0,-999.0,77,-99.99,,,0.00,0,weatherlink.com 1.10,2013-02-12 08:23:00,
2013-02-12 02:38:00,28.2,22.0,30.10,WNW,290,12.0,-999.0,77,-99.99,,,0.00,0,weatherlink.com 1.10,2013-02-12 08:38:00,
2013-02-12 02:53:00,27.9,22.0,30.10,WNW,294,15.0,-999.0,78,-99.99,,,0.00,0,weatherlink.com 1.10,2013-02-12 08:53:00,
2013-02-12 03:09:00,27.8,22.0,30.10,WNW,299,16.0,-999.0,78,-99.99,,,0.00,0,weatherlink.com 1.10,2013-02-12 09:09:00,
2013-02-12 03:24:00,27.6,22.0,30.09,WNW,293,13.0,-999.0,78,-99.99,,,0.00,0,weatherlink.com 1.10,2013-02-12 09:24:00,
2013-02-12 03:39:00,27.3,21.0,30.10,NW,306,17.0,-999.0,78,-99.99,,,0.00,0,weatherlink.com 1.10,2013-02-12 09:39:00,
2013-02-12 03:54:00,27.0,21.0,30.10,WNW,300,11.0,-999.0,77,-99.99,,,0.00,0,weatherlink.com 1.10,2013-02-12 09:54:00,
2013-02-12 04:09:00,27.0,21.0,30.10,NW,305,14.0,-999.0,78,-99.99,,,0.00,0,weatherlink.com 1.10,2013-02-12 10:09:00,
2013-02-12 04:24:00,27.0,21.0,30.10,WNW,289,11.0,-999.0,78,-99.99,,,0.00,0,weatherlink.com 1.10,2013-02-12 10:24:00,
2013-02-12 04:39:00,27.2,21.0,30.10,WNW,292,14.0,-999.0,78,-99.99,,,0.00,0,weatherlink.com 1.10,2013-02-12 10:39:00,
2013-02-12 04:54:00,27.2,21.0,30.09,WNW,297,11.0,-999.0,78,-99.99,,,0.00,0,weatherlink.com 1.10,2013-02-12 10:54:00,
2013-02-12 05:09:00,27.3,21.0,30.09,WNW,294,10.0,-999.0,78,-99.99,,,0.00,0,weatherlink.com 1.10,2013-02-12 11:09:00,
2013-02-12 05:24:00,27.5,22.0,30.09,WNW,291,12.0,-999.0,78,-99.99,,,0.00,0,weatherlink.com 1.10,2013-02-12 11:24:00,
2013-02-12 05:39:00,27.6,22.0,30.09,WNW,298,10.0,-999.0,79,-99.99,,,0.00,0,weatherlink.com 1.10,2013-02-12 11:39:00,
2013-02-12 05:54:00,27.5,22.0,30.07,WNW,298,11.0,-999.0,78,-99.99,,,0.00,0,weatherlink.com 1.10,2013-02-12 11:54:00,
2013-02-12 06:09:00,27.0,21.0,30.09,WNW,302,14.0,-999.0,78,-99.99,,,0.00,0,weatherlink.com 1.10,2013-02-12 12:09:00,
2013-02-12 06:24:00,26.9,21.0,30.10,WNW,298,11.0,-999.0,79,-99.99,,,0.00,0,weatherlink.com 1.10,2013-02-12 12:24:00,
2013-02-12 06:39:00,26.9,21.0,30.09,WNW,282,10.0,-999.0,79,-99.99,,,0.00,0,weatherlink.com 1.10,2013-02-12 12:39:00,
2013-02-12 06:54:00,27.0,21.0,30.09,WNW,294,9.0,-999.0,78,-99.99,,,0.00,0,weatherlink.com 1.10,2013-02-12 12:54:00,
2013-02-12 07:09:00,26.9,21.0,30.09,WNW,293,10.0,-999.0,78,-99.99,,,0.00,5,weatherlink.com 1.10,2013-02-12 13:09:00,
2013-02-12 07:24:00,26.9,21.0,30.10,WNW,291,12.0,-999.0,78,-99.99,,,0.00,11,weatherlink.com 1.10,2013-02-12 13:24:00,
2013-02-12 07:39:00,26.9,21.0,30.10,WNW,295,11.0,-999.0,79,-99.99,,,0.00,19,weatherlink.com 1.10,2013-02-12 13:39:00,
2013-02-12 07:54:00,27.0,21.0,30.11,WNW,296,15.0,-999.0,78,-99.99,,,0.00,30,weatherlink.com 1.10,2013-02-12 13:54:00,
2013-02-12 08:09:00,27.0,21.0,30.10,WNW,294,9.0,-999.0,78,-99.99,,,0.00,51,weatherlink.com 1.10,2013-02-12 14:09:00,
2013-02-12 08:24:00,27.0,21.0,30.11,WNW,296,11.0,-999.0,77,-99.99,,,0.00,65,weatherlink.com 1.10,2013-02-12 14:24:00,
2013-02-12 08:39:00,27.2,21.0,30.12,WNW,287,13.0,-999.0,77,-99.99,,,0.00,67,weatherlink.com 1.10,2013-02-12 14:39:00,
2013-02-12 08:54:00,27.3,21.0,30.12,WNW,290,13.0,-999.0,76,-99.99,,,0.00,86,weatherlink.com 1.10,2013-02-12 14:54:00,
2013-02-12 09:09:00,27.0,20.0,30.11,NW,304,14.0,-999.0,75,-99.99,,,0.00,54,weatherlink.com 1.10,2013-02-12 15:09:00,
2013-02-12 09:24:00,27.0,20.0,30.10,WNW,302,12.0,-999.0,75,-99.99,,,0.00,91,weatherlink.com 1.10,2013-02-12 15:24:00,
2013-02-12 09:39:00,27.3,20.0,30.11,WNW,290,13.0,-999.0,74,-99.99,,,0.00,162,weatherlink.com 1.10,2013-02-12 15:39:00,
2013-02-12 09:54:00,27.6,20.0,30.11,WNW,295,15.0,-999.0,73,-99.99,,,0.00,192,weatherlink.com 1.10,2013-02-12 15:54:00,
2013-02-12 10:09:00,28.1,20.0,30.11,WNW,292,10.0,-999.0,72,-99.99,,,0.00,172,weatherlink.com 1.10,2013-02-12 16:09:00,
2013-02-12 10:24:00,28.2,20.0,30.12,WNW,302,11.0,-999.0,72,-99.99,,,0.00,209,weatherlink.com 1.10,2013-02-12 16:24:00,
2013-02-12 10:39:00,28.8,20.0,30.11,WNW,285,11.0,-999.0,71,-99.99,,,0.00,244,weatherlink.com 1.10,2013-02-12 16:39:00,
2013-02-12 11:09:00,30.0,22.0,30.09,WNW,292,7.0,-999.0,71,-99.99,,,0.00,285,weatherlink.com 1.10,2013-02-12 17:09:00,
2013-02-12 11:24:00,30.4,22.0,30.08,WNW,290,10.0,-999.0,70,-99.99,,,0.00,410,weatherlink.com 1.10,2013-02-12 17:24:00,
2013-02-12 11:39:00,32.2,22.0,30.07,WNW,300,9.0,-999.0,67,-99.99,,,0.00,691,weatherlink.com 1.10,2013-02-12 17:39:00,
2013-02-12 11:54:00,31.0,22.0,30.06,NW,312,10.0,-999.0,68,-99.99,,,0.00,661,weatherlink.com 1.10,2013-02-12 17:54:00,
2013-02-12 12:09:00,32.1,22.0,30.06,NW,321,6.0,-999.0,66,-99.99,,,0.00,613,weatherlink.com 1.10,2013-02-12 18:09:00,
2013-02-12 12:24:00,33.1,22.0,30.05,NW,312,9.0,-999.0,65,-99.99,,,0.00,587,weatherlink.com 1.10,2013-02-12 18:24:00,
2013-02-12 12:40:00,33.5,22.0,30.05,WNW,296,5.0,-999.0,64,-99.99,,,0.00,193,weatherlink.com 1.10,2013-02-12 18:40:00,
2013-02-12 12:55:00,34.4,24.0,30.04,WNW,291,3.0,-999.0,65,-99.99,,,0.00,550,weatherlink.com 1.10,2013-02-12 18:55:00,
2013-02-12 13:10:00,35.2,24.0,30.04,West,261,13.0,-999.0,63,-99.99,,,0.00,515,weatherlink.com 1.10,2013-02-12 19:10:00,
2013-02-12 13:25:00,35.6,23.0,30.03,WNW,294,4.0,-999.0,60,-99.99,,,0.00,446,weatherlink.com 1.10,2013-02-12 19:25:00,
2013-02-12 13:40:00,36.2,24.0,30.02,WNW,298,7.0,-999.0,61,-99.99,,,0.00,487,weatherlink.com 1.10,2013-02-12 19:40:00,
2013-02-12 13:55:00,36.5,24.0,30.01,WNW,302,7.0,-999.0,61,-99.99,,,0.00,462,weatherlink.com 1.10,2013-02-12 19:55:00,
2013-02-12 14:10:00,37.0,25.0,30.01,WSW,245,6.0,-999.0,61,-99.99,,,0.00,410,weatherlink.com 1.10,2013-02-12 20:10:00,
2013-02-12 14:25:00,37.5,25.0,30.00,WNW,298,8.0,-999.0,60,-99.99,,,0.00,417,weatherlink.com 1.10,2013-02-12 20:25:00,
2013-02-12 14:40:00,37.8,25.0,30.00,WSW,256,9.0,-999.0,61,-99.99,,,0.00,309,weatherlink.com 1.10,2013-02-12 20:40:00,
2013-02-12 14:55:00,37.6,25.0,30.00,WNW,288,5.0,-999.0,60,-99.99,,,0.00,345,weatherlink.com 1.10,2013-02-12 20:55:00,
2013-02-12 15:10:00,38.0,25.0,29.99,WNW,291,10.0,-999.0,59,-99.99,,,0.00,329,weatherlink.com 1.10,2013-02-12 21:10:00,
2013-02-12 15:25:00,37.9,25.0,29.99,West,281,9.0,-999.0,59,-99.99,,,0.00,225,weatherlink.com 1.10,2013-02-12 21:25:00,
2013-02-12 15:40:00,37.8,26.0,29.99,SW,233,7.0,-999.0,62,-99.99,,,0.00,204,weatherlink.com 1.10,2013-02-12 21:40:00,
2013-02-12 15:55:00,37.3,26.0,29.98,WSW,246,9.0,-999.0,65,-99.99,,,0.00,165,weatherlink.com 1.10,2013-02-12 21:55:00,
2013-02-12 16:10:00,36.9,26.0,29.97,SSW,208,7.0,-999.0,64,-99.99,,,0.00,134,weatherlink.com 1.10,2013-02-12 22:10:00,
2013-02-12 16:25:00,36.3,26.0,29.97,SSW,203,3.0,-999.0,67,-99.99,,,0.00,86,weatherlink.com 1.10,2013-02-12 22:25:00,
2013-02-12 16:40:00,35.6,27.0,29.97,SSW,208,9.0,-999.0,70,-99.99,,,0.00,65,weatherlink.com 1.10,2013-02-12 22:40:00,
2013-02-12 16:55:00,34.3,27.0,29.96,SSW,200,6.0,-999.0,74,-99.99,,,0.00,40,weatherlink.com 1.10,2013-02-12 22:55:00,
2013-02-12 17:10:00,33.2,27.0,29.96,SSW,202,5.0,-999.0,77,-99.99,,,0.00,23,weatherlink.com 1.10,2013-02-12 23:10:00,
2013-02-12 17:25:00,32.5,27.0,29.96,SSW,200,5.0,-999.0,80,-99.99,,,0.00,7,weatherlink.com 1.10,2013-02-12 23:25:00,
2013-02-12 17:40:00,32.1,27.0,29.95,SSW,200,4.0,-999.0,80,-99.99,,,0.00,0,weatherlink.com 1.10,2013-02-12 23:40:00,
2013-02-12 17:55:00,31.2,26.0,29.95,SSW,196,4.0,-999.0,81,-99.99,,,0.00,0,weatherlink.com 1.10,2013-02-12 23:55:00,
2013-02-12 18:10:00,30.6,26.0,29.95,South,186,6.0,-999.0,82,-99.99,,,0.00,0,weatherlink.com 1.10,2013-02-13 00:10:00,
2013-02-12 18:25:00,30.6,25.0,29.95,South,180,4.0,-999.0,81,-99.99,,,0.00,0,weatherlink.com 1.10,2013-02-13 00:25:00,
2013-02-12 18:40:00,30.7,25.0,29.94,South,173,4.0,-999.0,80,-99.99,,,0.00,0,weatherlink.com 1.10,2013-02-13 00:40:00,
2013-02-12 18:55:00,30.6,25.0,29.94,South,173,2.0,-999.0,80,-99.99,,,0.00,0,weatherlink.com 1.10,2013-02-13 00:55:00,
2013-02-12 19:10:00,30.6,26.0,29.94,South,173,5.0,-999.0,82,-99.99,,,0.00,0,weatherlink.com 1.10,2013-02-13 01:10:00,
2013-02-12 19:25:00,29.4,25.0,29.94,South,169,5.0,-999.0,82,-99.99,,,0.00,0,weatherlink.com 1.10,2013-02-13 01:25:00,
2013-02-12 19:40:00,30.0,26.0,29.93,South,175,7.0,-999.0,84,-99.99,,,0.00,0,weatherlink.com 1.10,2013-02-13 01:40:00,
2013-02-12 19:55:00,29.7,25.0,29.93,South,178,4.0,-999.0,84,-99.99,,,0.00,0,weatherlink.com 1.10,2013-02-13 01:55:00,
2013-02-12 20:10:00,29.5,26.0,29.93,South,181,6.0,-999.0,85,-99.99,,,0.00,0,weatherlink.com 1.10,2013-02-13 02:10:00,
2013-02-12 20:25:00,29.7,26.0,29.93,South,187,6.0,-999.0,85,-99.99,,,0.00,0,weatherlink.com 1.10,2013-02-13 02:25:00,
2013-02-12 20:40:00,29.3,25.0,29.92,South,175,7.0,-999.0,85,-99.99,,,0.00,0,weatherlink.com 1.10,2013-02-13 02:40:00,
2013-02-12 20:55:00,30.0,26.0,29.92,South,181,10.0,-999.0,85,-99.99,,,0.00,0,weatherlink.com 1.10,2013-02-13 02:55:00,
2013-02-12 21:10:00,29.7,26.0,29.92,SSW,194,9.0,-999.0,85,-99.99,,,0.00,0,weatherlink.com 1.10,2013-02-13 03:10:00,
2013-02-12 21:25:00,29.5,26.0,29.92,SSW,192,7.0,-999.0,85,-99.99,,,0.00,0,weatherlink.com 1.10,2013-02-13 03:25:00,
2013-02-12 21:40:00,29.4,26.0,29.92,SSW,200,7.0,-999.0,86,-99.99,,,0.00,0,weatherlink.com 1.10,2013-02-13 03:40:00,
2013-02-12 21:55:00,29.0,26.0,29.92,SSW,202,7.0,-999.0,87,-99.99,,,0.00,0,weatherlink.com 1.10,2013-02-13 03:55:00,
2013-02-12 22:10:00,28.5,25.0,29.92,SSW,205,9.0,-999.0,87,-99.99,,,0.00,0,weatherlink.com 1.10,2013-02-13 04:10:00,
2013-02-12 22:25:00,28.4,25.0,29.91,SSW,196,7.0,-999.0,88,-99.99,,,0.00,0,weatherlink.com 1.10,2013-02-13 04:25:00,
2013-02-12 22:40:00,28.2,25.0,29.91,SSW,197,10.0,-999.0,88,-99.99,,,0.00,0,weatherlink.com 1.10,2013-02-13 04:40:00,
2013-02-12 22:55:00,28.2,25.0,29.90,SSW,202,9.0,-999.0,88,-99.99,,,0.00,0,weatherlink.com 1.10,2013-02-13 04:55:00,
2013-02-12 23:10:00,28.4,25.0,29.90,SSW,202,10.0,-999.0,88,-99.99,,,0.00,0,weatherlink.com 1.10,2013-02-13 05:10:00,
2013-02-12 23:25:00,28.7,26.0,29.89,SSW,198,12.0,-999.0,88,-99.99,,,0.00,0,weatherlink.com 1.10,2013-02-13 05:25:00,
2013-02-12 23:40:00,28.7,26.0,29.88,SSW,204,11.0,-999.0,88,-99.99,,,0.00,0,weatherlink.com 1.10,2013-02-13 05:40:00,
2013-02-12 23:55:00,28.7,25.0,29.88,SSW,205,11.0,-999.0,87,-99.99,,,0.00,0,weatherlink.com 1.10,2013-02-13 05:55:00,